User: anonymous   Login
Location: Eschertshofen
(49.3064°N, 11.5756°E)
Time: 10:03:01
(UTC+00:00)
Language:

ATLAS 5 CENTAUR R/B - Orbit

View from above orbital plane
View from above orbital plane
View from above satellite
View from above satellite

Ground track
Ground track

The orbit data is extracted from the following two-line orbital elements,

1 32379U 07060B   20337.29017867  .00008874  00000-0  66088-3 0  9990
2 32379  60.7160  87.1464 5136431 101.3279 318.2368  5.45068846 27312
Epoch (UTC): 02 December 2020 06:57:51
Eccentricity: 0.5136431
inclination: 60.7160°
perigee height: 255 km
apogee height: 14265 km
right ascension of ascending node: 87.1464°
argument of perigee: 101.3279°
revolutions per day: 5.45068846
mean anomaly at epoch: 318.2368°
orbit number at epoch: 2731

The dashed part of the orbit path shows where the satellite is in the earth's shadow,  

DLR